Jaipur, India

3:11 PM IST on March 24, 2017 (GMT +0530)
Jaipur

Weather History for VIJP - July, 2013

Change the Weather History Date:

Saturday, July 27, 2013

  Actual Average Record
Temperature  
Mean Temperature 84 °F -  
Max Temperature 89 °F - - ()
Min Temperature 78 °F - - ()
Cooling Degree Days 18    
Growing Degree Days 34 (Base 50)    
Moisture  
Dew Point 78 °F    
Average Humidity 90    
Maximum Humidity 100    
Minimum Humidity 69    
Precipitation  
Precipitation 0.28 in - - ()
Sea Level Pressure  
Sea Level Pressure 29.50 in    
Wind  
Wind Speed 3 mph ()    
Max Wind Speed 9 mph    
Max Gust Speed -    
Visibility 1.4 miles    
Events Rain , Thunderstorm    
T = Trace of Precipitation, MM = Missing Value Source: Averaged Metar Reports

Daily Weather History Graph

Daily Weather History Graph

Search for Another Location

Airport or City:

Trip Planner

Search our weather history database for the weather conditions in past years. The results will help you decide how hot, cold, wet, or windy it might be!

Date:

Astronomy

Jul. 27, 2013 Rise Set
Actual Time 5:48 AM IST 7:17 PM IST
Civil Twilight 5:23 AM IST 7:42 PM IST
Nautical Twilight 4:53 AM IST 8:13 PM IST
Astronomical Twilight 4:21 AM IST 8:44 PM IST
Moon 10:26 PM IST (7/27) 10:25 AM IST (7/27)
Length of Visible Light 14h 19m
Length of Day
13h 28m
Waning Gibbous, 75% of the Moon is Illuminated
Jul 27
Waning Gibbous
Jul 29
Last Quarter
Aug 7
New
Aug 14
First Quarter
Aug 21
Full

Hourly Weather History & Observations

Time (IST) Temp. Heat Index Dew Point Humidity Pressure Visibility Wind Dir Wind Speed Gust Speed Precip Events Conditions
12:00 AM 78.8 °F - 75.2 °F 89% 29.50 in 1.6 mi West 5.8 mph - N/A   Mostly Cloudy
1:00 AM 78.8 °F - 75.2 °F 89% 29.50 in 1.6 mi WNW 3.5 mph - N/A   Mostly Cloudy
2:00 AM 80.6 °F 86.2 °F 75.2 °F 84% 29.50 in 1.6 mi Variable 1.2 mph - N/A   Mostly Cloudy
2:30 AM 79 °F - 76 °F 88% 29.42 in 1 mi Calm Calm - -   Mist
3:00 AM 78.8 °F - 77.0 °F 94% 29.47 in 1.6 mi Variable 2.3 mph - N/A   Mostly Cloudy
4:00 AM 78.8 °F - 77.0 °F 94% 29.47 in 1.6 mi Calm Calm - N/A   Mostly Cloudy
5:00 AM 78.8 °F - 77.0 °F 94% 29.50 in 1.6 mi Calm Calm - N/A   Mostly Cloudy
5:30 AM 79 °F - 76 °F 89% 29.44 in 1 mi Calm Calm - -   Mist
6:00 AM 78.8 °F - 77.0 °F 94% 29.50 in 1.2 mi Variable 2.3 mph - N/A   Mostly Cloudy
7:00 AM 78.8 °F - 77.0 °F 94% 29.50 in 1.2 mi Variable 1.2 mph - N/A   Drizzle
8:00 AM 80.6 °F 87.1 °F 77.0 °F 89% 29.53 in 1.2 mi Calm Calm - N/A   Mostly Cloudy
8:30 AM 81 °F - 79 °F 90% 29.46 in 1 mi Calm Calm - -   Mist
9:00 AM 78.8 °F - 78.8 °F 100% 29.53 in 0.9 mi ESE 6.9 mph - N/A Rain Rain
10:00 AM 84.2 °F 96.1 °F 78.8 °F 84% 29.53 in 1.6 mi East 4.6 mph - N/A   Mostly Cloudy
11:30 AM 88 °F - 79 °F 69% 29.45 in 1 mi East 1.2 mph - -   Haze
12:00 PM 86.0 °F 101.9 °F 80.6 °F 84% 29.53 in 2.2 mi SSW 3.5 mph - N/A   Haze
1:00 PM 86.0 °F 99.3 °F 78.8 °F 79% 29.53 in 2.2 mi SW 6.9 mph - N/A   Haze
2:30 PM 84 °F - 78 °F 76% 29.43 in 1 mi NW 5.8 mph - -   Mostly Cloudy
3:00 PM 80.6 °F 88.1 °F 78.8 °F 94% 29.50 in 1.9 mi SE 9.2 mph - N/A Rain , Thunderstorm Light Thunderstorms and Rain
4:00 PM 80.6 °F 88.1 °F 78.8 °F 94% 29.50 in 1.6 mi WSW 3.5 mph - N/A Rain , Thunderstorm Light Thunderstorms and Rain
5:00 PM 80.6 °F 87.1 °F 77.0 °F 89% 29.47 in 1.6 mi Variable 1.2 mph - N/A   Mostly Cloudy
5:30 PM 81 °F - 79 °F 92% 29.44 in 1 mi Calm Calm - -   Mist
5:30 PM 82.4 °F 90.9 °F 77.0 °F 84% 29.50 in 1.6 mi Variable 1.2 mph - N/A   Mostly Cloudy
6:00 PM 82.4 °F 90.9 °F 77.0 °F 84% 29.50 in 1.6 mi Calm Calm - N/A   Mostly Cloudy
6:30 PM 82.4 °F 92.4 °F 78.8 °F 89% 29.53 in 1.6 mi Calm Calm - N/A   Mostly Cloudy
7:00 PM 82.4 °F 92.4 °F 78.8 °F 89% 29.53 in 1.6 mi WNW 5.8 mph - N/A   Mostly Cloudy
8:00 PM 78.8 °F - 77.0 °F 94% 29.53 in 1.6 mi Variable 5.8 mph - N/A Rain , Thunderstorm Thunderstorms and Rain
8:30 PM 79 °F - 78 °F 95% 29.48 in 1 mi NW 2.3 mph - - Rain , Thunderstorm Thunderstorms and Rain
9:00 PM 78.8 °F - 77.0 °F 94% 29.56 in 1.6 mi West 4.6 mph - N/A Rain , Thunderstorm Light Thunderstorms and Rain
10:00 PM 78.8 °F - 77.0 °F 94% 29.56 in 1.6 mi WNW 4.6 mph - N/A Rain , Thunderstorm Light Thunderstorms and Rain
11:00 PM 78.8 °F - 78.8 °F 100% 29.56 in 1.6 mi West 4.6 mph - N/A Rain , Thunderstorm Light Thunderstorms and Rain
11:30 PM 79 °F - 79 °F 98% 29.50 in 1 mi NW 2.3 mph - -   Mist